Regional Weather Roundup
Issued by NWS Little Rock, AR

Home | Current Version | Previous Version | Graphics & Text | Print | Product List | Glossary On
Versions: 1 2 3 4 5 6 7 8 9 10 11 12 13 14 15 16 17 18 19 20 21 22 23 24 25 26 27 28 29 30 31 32 33 34 35 36 37 38 39 40 41 42 43 44 45 46 47 48 49 50
000
ASUS44 KLZK 160305
RWRLZK

WEATHER ROUNDUP FOR ARKANSAS
NATIONAL WEATHER SERVICE LITTLE ROCK AR
1000 PM CDT MON SEP 15 2014

NOTE: "FAIR" INDICATES FEW OR NO CLOUDS BELOW 12,000 FEET WITH NO
SIGNIFICANT WEATHER AND/OR OBSTRUCTIONS TO VISIBILITY.

ARZ001-003-010-029-160400-
NORTHWEST ARKANSAS

CITY           SKY/WX    TMP DP  RH WIND       PRES   REMARKS
FAYETTEVILLE   MOCLDY    68  67  96 CALM      30.16R
FORT SMITH     PTCLDY    72  68  87 CALM      30.14R
HARRISON       MOCLDY    69  67  93 CALM      30.15R
BENTONVILLE    MOCLDY    72  66  83 W3        30.16S
ROGERS         MOCLDY    72  67  84 W9        30.17R
SILOAM SPGS    MOCLDY    70  64  83 CALM      30.17R
HIGHFILL       MOCLDY    71  68  90 CALM      30.15R
$$

ARZ004-005-016-160400-
NORTH CENTRAL ARKANSAS

CITY           SKY/WX    TMP DP  RH WIND       PRES   REMARKS
BATESVILLE     PTCLDY    70  64  83 SW5       30.12R
FLIPPIN        PTCLDY    72  64  78 SW3       30.12R
MTN HOME       MOCLDY    70  68  93 SW3       30.12R
$$

ARZ040-041-160400-
WEST CENTRAL ARKANSAS

CITY           SKY/WX    TMP DP  RH WIND       PRES   REMARKS
MENA             N/A     73  70  88 CALM        N/A
MOUNT IDA      CLOUDY    70  68  93 CALM      30.14R
$$

ARZ009-017-025-026-028-160400-
NORTHEAST ARKANSAS

CITY           SKY/WX    TMP DP  RH WIND       PRES   REMARKS
CORNING          N/A     68  68 100 SW6       30.10S
JONESBORO      CLOUDY    71  65  81 SW9       30.10R
NEWPORT        PTCLDY    68  65  90 S6        30.13R
WALNUT RIDGE   CLEAR     63  61  94 CALM      30.10R
BLYTHEVILLE    PTCLDY    68  66  93 SW6       30.11R
$$

ARZ022-023-033-042-044-160400-
CENTRAL ARKANSAS

CITY           SKY/WX    TMP DP  RH WIND       PRES   REMARKS
LITTLE ROCK    MOCLDY    71  66  84 S5        30.13S
N LITTLE ROCK  MOCLDY    70  68  92 W5        30.13S
JACKSONVILLE   MOCLDY    69  66  92 CALM      30.13R
SEARCY         PTCLDY    68  66  93 CALM      30.14R
HOT SPRINGS    CLOUDY    71  67  87 CALM      30.15R
RUSSELLVILLE   PTCLDY    67  65  93 CALM      30.13R
CLINTON        FAIR      66  66 100 CALM      30.14S FOG
$$

ARZ036-160400-
EAST ARKANSAS

CITY           SKY/WX    TMP DP  RH WIND       PRES   REMARKS
WEST MEMPHIS   MOCLDY    71  68  90 CALM      30.12R
$$

ARZ050-053-066-070-073-160400-
SOUTHWEST ARKANSAS

CITY           SKY/WX    TMP DP  RH WIND       PRES   REMARKS
ARKADELPHIA    FAIR      71  71 100 CALM      30.15R
CAMDEN         MOCLDY    70  66  88 CALM      30.13S
TEXARKANA      MOCLDY    72  70  93 E3        30.13S
EL DORADO      MOCLDY    71  69  93 CALM      30.14R
DE QUEEN       CLOUDY    72  70  93 CALM      30.12R
$$

ARZ056-057-069-160400-
SOUTHEAST ARKANSAS

CITY           SKY/WX    TMP DP  RH WIND       PRES   REMARKS
PINE BLUFF     CLOUDY    73  68  84 CALM      30.14R
STUTTGART      PTCLDY    72  64  78 CALM      30.14S
MONTICELLO     MOCLDY    74  68  81 CALM      30.13R

$$




USA.gov is the U.S. government's official web portal to all federal, state and local government web resources and services.